Regional Weather Roundup
Issued by NWS

Home | Current Version | Previous Version | Graphics & Text | Print | Product List | Glossary On
Versions: 1 2 3 4 5 6 7 8 9 10 11 12 13 14 15 16 17 18 19 20 21 22 23 24 25 26 27
000
ASUS45 KBOI 230510
RWRID

IDAHO REGIONAL WEATHER ROUNDUP
NATIONAL WEATHER SERVICE BOISE ID
1100 PM MDT MON MAY 22 2017

NOTE: "FAIR" INDICATES FEW OR NO CLOUDS BELOW 12000 FEET
WITH NO SIGNIFICANT WEATHER AND/OR OBSTRUCTIONS TO VISIBILITY

IDZ012-014-230600-
SOUTHWEST IDAHO


CITY           SKY/WX    TMP DP  RH WIND       PRES   REMARKS
BOISE          CLEAR     65  40  39 CALM      30.10R
CALDWELL       CLEAR     67  45  45 SW3       30.08S
MOUNTAIN HOME  CLEAR     56  36  47 NW6       30.11R
$$

IDZ016-017-230600-
SOUTHCENTRAL IDAHO


CITY           SKY/WX    TMP DP  RH WIND       PRES   REMARKS
BURLEY         CLEAR     60  42  51 SW8       30.15R
JEROME         CLEAR     62  37  39 S6        30.15R
TWIN FALLS     CLEAR     54  39  57 S12       30.16S
$$

IDZ019>023-230600-
SOUTHEAST IDAHO


CITY           SKY/WX    TMP DP  RH WIND       PRES   REMARKS
IDAHO FALLS    CLEAR     54  40  59 NE6       30.22R
POCATELLO      CLEAR     61  40  45 S8        30.17S
REXBURG        PTCLDY    57  35  43 E10       30.22S
$$

IDZ006-010-011-018-031-032-230600-
CENTRAL IDAHO MOUNTAINS


CITY           SKY/WX    TMP DP  RH WIND       PRES   REMARKS
MCCALL         CLEAR     55  31  39 N5        30.21R
HAILEY         CLEAR     54  43  66 NW3       30.23R
STANLEY          N/A     45  29  53 S6        30.30R
SALMON         CLEAR     57  39  51 CALM      30.17R
CHALLIS        CLEAR     56  38  50 NW6       30.21R
$$

IDZ002-004-006-007-026-230600-
NORTHERN IDAHO


CITY           SKY/WX    TMP DP  RH WIND       PRES   REMARKS
LEWISTON       CLEAR     68  49  50 S10       30.06R
LOWELL           N/A     58  51  78 CALM      30.10R
COEUR D`ALENE  CLEAR     64  52  64 SE3       30.11R
MULLAN PASS    CLEAR     55  34  45 NW5       30.27S
$$




USA.gov is the U.S. government's official web portal to all federal, state and local government web resources and services.